Tracking 28336 objects as of 4-Dec-2023
HD Live streaming from Space Station
objects crossing your sky now

STARLINK-4092

Track STARLINK-4092 now!
10-day predictions
STARLINK-4092 is classified as:


NORAD ID: 52838
Int'l Code: 2022-062J
Perigee: 546.0 km
Apogee: 547.8 km
Inclination: 53.2 °
Period: 95.4 minutes
Semi major axis: 6917 km
RCS: Unknown
Launch date: June 17, 2022
Source: United States (US)
Launch site: AIR FORCE EASTERN TEST RANGE (AFETR)
Your satellite tracking list
Your tracking list is empty




NASA's NSSDC Master Catalog

Two Line Element Set (TLE):
1 52838U 22062J   23337.74282203 -.00000786  00000-0 -31333-4 0  9994
2 52838  53.2156 146.4168 0001261  93.5001 266.6135 15.08837647 81432
Source of the keplerian elements: AFSPC